Regional Weather Roundup
Issued by NWS

Home | Current Version | Previous Version | Text Only | Print | Product List | Glossary On
Versions: 1 2 3 4 5 6 7 8 9 10 11 12 13 14 15 16 17 18 19 20 21 22 23 24 25 26 27 28 29 30 31 32 33 34 35 36 37 38 39 40 41 42 43 44 45 46 47 48 49 50
000
ASUS44 KLIX 191210
RWRLA
LOUISIANA WEATHER ROUNDUP
NATIONAL WEATHER SERVICE NEW ORLEANS LA
600 AM CST FRI DEC 19 2014

NOTE: "FAIR" INDICATES FEW OR NO CLOUDS BELOW 12,000 FEET WITH NO
      SIGNIFICANT WEATHER AND/OR OBSTRUCTIONS TO VISIBILITY.
      SKY/WX - SKY CONDITION AND SIGNIFICANT WEATHER.
      TMP - AIR TEMPERATURE.    DP   - DEWPOINT TEMPERATURE.
      RH  - RELATIVE HUMIDITY.  PRES - PRESSURE.
      HX  - HEAT INDEX.         WCI  - WIND CHILL INDEX.

*  THESE STATIONS ARE NOT NWS OR FAA STATIONS AND ARE NOT UNDER
   NWS QUALITY CONTROL.

LAZ040-048-061>063-065-066-069-191300-
SOUTHEAST LOUISIANA

CITY           SKY/WX    TMP DP  RH WIND       PRES   REMARKS
N.O. AUDUBON     N/A     60  53  77 MISG        N/A
6HR MIN TEMP:  58; 6HR MAX TEMP:  60;

N.O. INTL ARPT LGT RAIN  57  50  77 E8        30.07R
6HR MIN TEMP:  57; 6HR MAX TEMP:  58; 6HR PCP: TRACE;

N.O. LAKEFRONT CLOUDY    58  50  75 E18       30.06S
6HR MIN TEMP:  57; 6HR MAX TEMP:  60;

N.O. DOWNTOWN* CLOUDY    57  48  72 E13G18    30.07R
6HR MIN TEMP:  57; 6HR MAX TEMP:  59;

SLIDELL        LGT RAIN  54  51  90 NE9       30.06F FOG
6HR MIN TEMP:  54; 6HR MAX TEMP:  56; 6HR PCP:  0.19;

BATON ROUGE    LGT RAIN  54  52  93 N5        30.11R
6HR MIN TEMP:  53; 6HR MAX TEMP:  55; 6HR PCP:  1.01;

BOOTHVILLE     CLOUDY    60  57  89 E9        30.06R
6HR MIN TEMP:  59; 6HR MAX TEMP:  63; 6HR PCP: TRACE;

BELLE CHASSE   CLOUDY    56  52  86 E10       30.06S
6HR MIN TEMP:  56; 6HR MAX TEMP:  59; 6HR PCP: TRACE;

BOGALUSA*      TSTM      53  49  87 E6        30.12S
6HR MIN TEMP:  53; 6HR MAX TEMP:  54; 6HR PCP:  0.08;

GALLIANO*      CLOUDY    59  58  96 MISG      30.05R
6HR MIN TEMP:  57; 6HR MAX TEMP:  59; 6HR PCP:  0.06;

NEW ROADS*     CLOUDY    54  53  98 NW3       30.12R
6HR MIN TEMP:  53; 6HR MAX TEMP:  54; 6HR PCP:  1.40;

GONZALES*      CLOUDY    55  55 100 NW6       30.10R
6HR MIN TEMP:  55; 6HR MAX TEMP:  58; 6HR PCP:  0.34;

HAMMOND*       NOT AVBL
HOUMA*         CLOUDY    59  57  94 E8        30.06R FOG
PORT FOURCHON* CLOUDY    63  61  94 E8        30.08R

$$

LAZ041-044-053-054-191300-
SOUTHWEST LOUISIANA

CITY           SKY/WX    TMP DP  RH WIND       PRES   REMARKS
LAKE CHARLES   RAIN      58  56  93 MISG      30.04F
6HR MIN TEMP:  54; 6HR MAX TEMP:  58; 6HR PCP:  0.50;

LAFAYETTE      LGT RAIN  55  50  83 NE8       30.11R
6HR MIN TEMP:  55; 6HR MAX TEMP:  58; 6HR PCP:  0.37;

PATTERSON      CLOUDY    57  55  94 N7        30.09R
6HR MIN TEMP:  57; 6HR MAX TEMP:  59;

SALT POINT       N/A     63  59  87 N5        30.06R
6HR MIN TEMP:  62; 6HR MAX TEMP:  64; 6HR PCP:  0.01;

NEW IBERIA     LGT RAIN  57  55  93 N18       30.12R
6HR MIN TEMP:  57; 6HR MAX TEMP:  61; 6HR PCP:  0.05;

CHENAULT AIRPK NOT AVBL

$$

LAZ027-028-191300-
CENTRAL LOUISIANA

CITY           SKY/WX    TMP DP  RH WIND       PRES   REMARKS
FORT POLK      CLOUDY    52  50  93 E9        30.07F
6HR MIN TEMP:  51; 6HR MAX TEMP:  52; 6HR PCP:  0.33;

ALEXANDRIA INT NOT AVBL
ALEXANDRIA     LGT RAIN  51  50  96 CALM      30.12S
6HR MIN TEMP:  51; 6HR MAX TEMP:  52; 6HR PCP:  0.10;


$$

LAZ001-002-191300-
NORTHWEST LOUISIANA

CITY           SKY/WX    TMP DP  RH WIND       PRES   REMARKS
SHREVEPORT     CLOUDY    50  46  86 NE12      30.11R
6HR MIN TEMP:  50; 6HR MAX TEMP:  51;

BARKSDALE AFB  NOT AVBL
DTN SHREVEPORT CLOUDY    48  44  86 NE5       30.13R
6HR MIN TEMP:  48; 6HR MAX TEMP:  50;


$$

LAZ014-016-191300-
NORTHEAST LOUISIANA

CITY           SKY/WX    TMP DP  RH WIND       PRES   REMARKS
MONROE         CLOUDY    47  45  93 NE9       30.14S
6HR MIN TEMP:  47; 6HR MAX TEMP:  49;

TALLULAH       CLOUDY    50  43  77 NE6       30.15R
6HR MIN TEMP:  49; 6HR MAX TEMP:  50;


$$



USA.gov is the U.S. government's official web portal to all federal, state and local government web resources and services.